    Orbital elements:
    2015 WH13                                                Earth MOID = 0.1600 AU
    Epoch 2019 Apr. 27.0 TT = JDT 2458600.5                 MPC
    M 326.01427              (2000.0)            P               Q
    n   0.25024952     Peri.   25.93075     +0.59133248     +0.78453187
    a   2.4939470      Node   280.87899     -0.76900257     +0.47889003
    e   0.7979067      Incl.   10.95622     -0.24281877     +0.39392142
    P   3.94           H   19.0           G   0.15           U   3
    Residuals in seconds of arc
    150220 F51  0.1-  0.3-    151203 H01  0.1+  0.1-    151209 H21  0.2-  0.2-
    150220 F51  0.1-  0.1-    151203 H21  0.2-  0.1-    151209 H21  0.1-  0.0
    150220 F51  0.1-  0.1+    151203 H21  0.2-  0.1+    151209 H21  0.2-  0.2-
    150318 F51  0.0   0.0     151203 H21  0.0   0.1+    151209 H21  0.2-  0.3-
    150318 F51  0.1+  0.1-    151203 H21  0.1+  0.1-    151209 H21  0.1-  0.1-
    150319 F51  0.1+  0.1+    151203 H21  0.1+  0.1+    151209 H21  0.2-  0.1-
    150319 F51  0.2+  0.3+    151203 H21  0.1-  0.1+    151209 H21  0.3-  0.0
    151118 C51  0.1-  0.5-    151203 H21  0.1-  0.1+    151209 H21  0.0   0.4+
    151118 C51  0.1-  0.4-    151203 H21  0.0   0.0     151210 H21  0.2-  0.4+
    151118 C51  0.6-  0.5-    151203 H01  0.1+  0.1-    151210 H21  0.5-  0.8+
    151130 703  0.3+  0.1+    151203 H21  0.2-  0.1+    151210 H21  0.5-  1.3+
    151130 703  0.0   0.2+    151203 926  0.1-  0.1+    151210 246  0.7+  0.3+
    151130 703  0.9+  0.3-    151203 H01  0.0   0.1-    151210 246  0.3-  0.2+
    151130 703  0.8+  0.1+    151203 H21  0.0   0.2+    151210 246  0.1+  0.0
    151130 703  0.5-  0.2+    151203 926  0.1-  0.6+    151210 246  0.1+  0.1-
    151130 703  0.4-  0.3-    151203 H36  0.4+  0.8-    151210 246  0.2+  0.8-
    151130 703  0.0   0.3+    151203 926  0.4-  0.4-    151211 H21  0.4-  0.0
    151130 703  0.5-  0.1-    151203 H01  0.1-  0.1-    151211 H21  0.3-  0.0
    151130 703  0.1+  0.5-    151203 H36  0.2-  0.1-    151211 H21  0.2-  0.1+
    151130 703  0.7-  0.8+    151203 H36  0.2+  0.2+    151211 H21  0.2-  0.1+
    151130 703  0.1+  0.4+    151203 926  0.1-  0.3-    151211 H21  0.4-  0.2+
    151130 703  0.4-  0.4-    151203 926  0.4+  0.2+    151211 H21  0.3-  0.2+
    151130 587  0.3+  0.7+    151203 926  0.0   0.1+    151211 H21  0.3-  0.1+
    151130 587  0.2+  0.5+    151203 H06  0.1-  0.2+    151211 H21  0.2-  0.1-
    151130 587  0.1+  0.3+    151203 H06  0.2-  0.1+    151211 H21  0.1-  0.1+
    151130 587  0.1+  0.1+    151203 H06  0.3-  0.1-    151211 H21  0.1-  0.1+
    151130 958  1.4+  0.2-    151203 G96  0.0   0.0     151211 H21  0.1+  0.1+
    151130 958  1.2+  0.2-    151203 G96  0.1-  0.0     151211 H21  0.1-  0.1+
    151130 958  1.4+  0.3-    151203 G96  0.0   0.1+    151211 926  0.1-  0.0
    151130 K51  0.1-  0.2+    151203 G96  0.0   0.1+    151211 926  0.0   0.1-
    151130 K51  0.2-  0.2+    151203 926  0.5+  0.0     151211 926  0.4-  0.2+
    151130 K51  0.0   0.1+    151203 926  0.1-  0.5-    151214 926  0.0   0.1+
    151130 C77  0.2+  0.3-    151203 926  0.1+  0.0     151214 926  0.4+  0.5+
    151130 C77  0.8+  0.0     151204 G45  0.0   0.3+    151214 926  0.9-  1.0+
    151130 C77  1.2+  0.2-    151204 G45  0.0   0.3-    151216 926  0.1+  0.1-
    151201 I47  0.9-  0.2-    151204 G45  0.1+  0.2-    151216 926  0.1+  0.5-
    151201 I47  0.9-  0.4-    151204 G45  0.2-  0.4+    151216 926  0.1+  0.3+
    151201 H01  0.0   0.1+    151204 G45  0.2-  0.0     151217 I52  0.8+  0.1-
    151201 I47  1.2+  0.2-    151204 G45  0.1-  0.4+    151217 I52  0.1-  0.2-
    151201 H01  0.0   0.0     151204 G45  0.0   0.2+    151217 I52  0.2-  0.0
    151201 H01  0.0   0.0     151204 G45  0.0   0.1+    151217 703  0.4+  1.0+
    151201 H01  0.1-  0.0     151204 G45  0.0   0.0     151217 703  0.6+  0.6-
    151201 H06  1.1-  0.4+    151205 926  0.1-  0.1-    151217 703  1.5-  0.9-
    151201 H06  0.3+  0.1+    151205 926  0.2-  0.4-    151218 G45  0.0   0.1-
    151201 H06  0.1-  0.3+    151205 926  0.2+  0.3-    151218 G45  0.2+  0.1+
    151201 926  0.3-  0.4+    151206 H21  0.1-  0.1-    151218 G45  0.0   0.5+
    151201 926  0.2-  0.4-    151206 H21  0.2-  0.1+    151218 G45  0.4+  0.1-
    151201 926  0.2-  0.3-    151206 H21  0.3-  0.0     151218 G45  0.0   0.0
    151201 900  0.9+  0.5-    151206 H21  0.1-  0.0     151218 G45  0.3+  0.3+
    151201 900  0.9+  0.2-    151206 H21  0.2-  0.0     151219 H21  0.3+  0.1-
    151201 900  0.1+  0.3-    151206 H21  0.2-  0.1-    151219 H21  0.2+  0.2-
    151201 900  0.2-  0.1+    151206 H21  0.1-  0.0     151219 H21  0.5+  0.4-
    151201 300  0.4+  0.3-    151206 246  0.1+  0.1-    151219 H21  0.4+  0.3-
    151201 300  0.1+  0.5+    151206 246  0.6-  0.3+    151220 H21  0.1-  0.2+
    151201 300  0.0   0.2+    151206 246  0.1+  0.5-    151220 H21  0.1-  0.0
    151201 300  0.2+  0.6+    151206 246  0.2-  0.2-    151220 H21  0.1-  0.1+
    151201 300  0.2+  0.4+    151206 246  0.0   0.3-    151220 H21  0.0   0.2+
    151201 300  0.2+  0.5+    151206 I42  0.6+  0.1+    151220 H21  0.2+  0.2+
    151201 300  0.5+  0.2+    151206 I42  0.6+  0.3+    151220 H21  0.1+  0.2+
    151201 300  0.3+  0.7+    151207 H45  0.3+  0.1-    151220 H21  0.2-  0.2+
    151201 B74  0.3-  0.1+    151207 H45  0.1+  0.1-    151228 291  1.0-  0.3+
    151201 B74  0.1+  0.0     151207 H45  0.0   0.3-    151228 291  0.4-  0.2+
    151201 B74  0.6+  0.2-    151207 H45  0.1-  0.0     151228 291  0.2-  0.1+
    151201 204  0.0   0.1+    151207 H45  0.2+  0.5-    160103 I52  0.1+  0.2-
    151201 204  0.0   0.1+    151207 H45  0.9+  0.7-    160103 I52  0.0   0.2+
    151201 204  0.1-  0.0     151207 H45  0.4+  0.4-    160103 I52  0.2+  0.1+
    151201 204  0.1+  0.0     151207 926  0.1-  0.3+    160103 I52  0.0   0.5+
    151202 H01  0.0   0.0     151207 926  0.7+  0.0     160107 F51  0.1+  0.0
    151202 H01  0.1-  0.1+    151207 926  0.6-  0.4+    160108 F51  0.1+  0.0
    151202 H01  0.1-  0.0     151207 246  0.5-  1.1+    160108 F51  0.0   0.1-
    151202 H01  0.0   0.0     151207 246  0.8-  0.2-    160108 F51  0.1+  0.0
    151202 703  0.2+  0.0     151207 246  0.1+  0.1+    160108 F51  0.2+  0.1-
    151202 703  0.1-  0.2-    151207 246  0.5-  0.3+    160125 F51  0.2+  0.5-
    151202 703  0.3+  0.2-    151207 246  0.3-  0.2-    160126 F51  0.2+  0.0
    151202 703  0.2+  0.8+    151207 246  1.2-  0.8+    160126 F51  0.0   0.1-
    151202 H06  0.3-  0.3+    151207 246  0.3+  0.3-    160126 F51  0.2-  0.0
    151202 926  0.1+  0.0     151207 246  0.4+  0.0     160126 F51  0.2-  0.0
    151202 H06  0.2+  0.3-    151208 246  0.2-  1.0-    160126 F51  0.1+  0.0
    151202 926  0.1-  0.1-    151208 246  0.2+  0.8-    160126 F51  0.2-  0.2-
    151202 926  0.1+  0.0     151208 246  0.5+  0.9-    160126 F51  0.1+  0.1-
    151202 H06  0.4+  0.7+    151208 246  1.9-  0.0     160206 F51  0.1+  0.1+
    151202 926  0.0   0.3-    151208 246  0.1-  0.2-    160206 F51  0.2+  0.1+
    151202 926  0.1-  0.0     151208 246  0.3-  0.3-    160206 F51  0.0   0.1+
    151202 926  0.1-  0.7-    151208 H21  0.3-  0.3-
    151203 H21  0.1-  0.1-    151209 H21  0.3-  0.1-
    
    Ephemeris:
    2015 WH13                a,e,i = 2.49, 0.80, 11                  q = 0.5040
    Date    TT    R. A. (2000) Decl.     Delta      r     Elong.  Phase     V
    2018 12 31    11 15 13.0 -06 20 27   2.6483  3.0754   106.5    17.9    24.5
    ...
    2019 01 15    11 13 18.4 -07 26 24   2.3390  2.9718   121.3    16.4    24.1
    ...
    2019 01 23    11 09 54.1 -07 50 25   2.1855  2.9144   129.7    15.1    23.9
    ...
    2019 01 29    11 06 08.0 -08 01 55   2.0774  2.8703   136.2    13.7    23.7
    2019 01 30    11 05 24.1 -08 03 13   2.0601  2.8629   137.3    13.5    23.6
    2019 01 31    11 04 38.3 -08 04 20   2.0430  2.8554   138.4    13.2    23.6
    ...
    2019 02 06    10 59 25.1 -08 06 49   1.9450  2.8102   145.0    11.6    23.4
    ...
    2019 02 14    10 50 48.0 -07 58 02   1.8284  2.7484   153.7     9.2    23.1
    ...
    2019 03 01    10 30 20.9 -07 00 42   1.6597  2.6281   164.6     5.7    22.7
    
    A. U. Tomatic                (C) Copyright 2019 MPC           M.P.E.C. 2019-B151
    

    Read MPEC 2019-B150 Read MPEC 2019-B152


    MPEC number:

    Enter an MPEC number in one of the following forms:

    • 1997-B01 (the full form)
    • J97B01 (the packed version of the full form)
    • B01 (the abbreviated form)